カタログに戻る

STARLINK-6362

運用中通信VLEO
NORAD 57350·PAYLOAD·🇺🇸 United States

打ち上げ Jul 16, 2023 から Cape Canaveral Space Force Station

Loading…

次のパス (今後24時間)

TLE

最新Source: CelesTrak SupGP

元期: Sep 14, 2026, 21:35 UTC

1 57350C 23099Y   26257.89979167  .00034236  00000+0  12402-2 0  2576
2 57350  43.0000 253.2943 0000913 270.8310 122.3824 15.27556736    11

AllMySatでSTARLINK-6362をリアルタイム追跡

Download on the App Store